Location: *
(46.1006°N, 1.8394°E)
Time: 05:57:22
(UTC+00:00)

CZ-2C R/B - Pass Details

Date: 20 September 2019
Orbit: 639 x 705 km, 98.4° (Epoch: 20 October)

Event Time Altitude Azimuth Distance (km) Brightness Sun altitude
Rises 19:29:01 0° 13° (NNE) 2,976 7.2 -16.8°
Reaches altitude 10° 19:31:14 10° 13° (NNE) 2,055 6.3 -17.2°
Maximum altitude 19:35:43 86° 286° (WNW) 650 3.6 -17.9°
Drops below altitude 10° 19:40:08 10° 197° (SSW) 2,026 6.1 -18.6°
Sets 19:42:19 0° 197° (SSW) 2,931 7.0 -18.9°
